SCOUT A-1 R/B

Satellite information

Favourite Embed

Satellite Type and Status

ROCKET BODYIN ORBIT

Key statistics

Satellite SCOUT A-1 R/B at a glance.

Uptime

18823

Days in orbit

Revolutions

≈ 13.7

Per day

Orbit

LEO

Low Earth Orbit

Inclination

89.9

Latest

Satellite identification and parameters

Extended collection of information and parameters for SCOUT A-1 R/B.

Object identification

Identified? True

Debris? False

Object name: SCOUT A-1 R/B

International designator: 1973-081B

Object number (NORAD): 6910

Object ID (CCSDS): 6910

Country: UNITED STATES OF AMERICA (US)

Current information (Y/N): Y

RCS size: MEDIUM

Orbital parameters

Period: 105.134 minutes

Inclination: 89.8525 deg

SMA: 7378.871 km

Apoapsis: 1118.632 km

Periapsis: 882.84 km

RAAN: 255.9726 deg

Eccentricy: 0.0159775

Argument of periapsis: 67.8001 deg

Mean anomaly: 294.0025 deg

Mean motion: 13.69676106 rev/day

Mean motion (dot): 0.0000012 rev/day2

B* drag term: 0.00011326 1/REarth

Two-line elements (TLE)

Creation date: May 12, 2025, 10:36 p.m.

Reference frame: TEME

Reference center: EARTH

Epoch: May 12, 2025, 8:09 p.m. UTC

TLE line 0: 0 SCOUT A-1 R/B

TLE line 1: 1 6910U 73081B 25132.83985630 .00000120 00000-0 11326-3 0 9999

TLE line 2: 2 6910 89.8525 255.9726 0159775 67.8001 294.0025 13.69676106572299

Live tracking on map

Real-time ground track for satellite SCOUT A-1 R/B.

In-orbit conjunctions

A list of the most updated potential collisions computed for object SCOUT A-1 R/B.

Target Orbit TCA Probability of collision Miss distance Type
COSMOS 1275 DEB LEO 2024-12-20 08:56:13 0.0001132902 493.0 (m) DEBRIS

Associated space launch

The Transit-O series of satellites that closely followed the design of Transit 5C-1 were also called “Oscars” (Oscar is the phonetic alphabet for “O”, i. e., operational). They were also called NNS (Navy Navigation Satellite) or shortened NavSat.

SCOUT A-1 R/B was lifted into orbit during the mission ‘Scout A-1 | Transit-O 20’, on board a Scout A-1 space rocket.

The launch took place on Oct. 30, 1973, 12:37 a.m. from Space Launch Complex 5.

For more information about the launch, click the button.

Launch to space Scout A-1 | Transit-O 20
Scout A-1 | Transit-O 20

Agency: N/A

Status: Launch Successful

Launch date: Oct. 30, 1973, 12:37 a.m. UTC

Rocket: Scout A-1

Launch pad: Space Launch Complex 5

Location: Vandenberg SFB, CA, USA

...

Latest news about this satellite

There are no fresh news available about this satellite. Check back as we update our databases every day.


Newsletter sign-up

Weekly statistics, charts and insights to help you stay on top of the space industry.